STARLINK-1564, 46058

Orbit data source: Space-Track

STARLINK-1564, 46058 is a payload satellite owned by SpaceX/Seattle (US) in LEO that was launched on Fri, 07 Aug 2020 UTC via an FALCON 9 launch vehicle from the Air Force Eastern Test Range (AFETR). Payload-class satellites include a variety of spacecraft equipped with specific instruments for various scientific and technological missions. These include communications satellites like Starlink; space stations such as the ISS; scientific satellites like the Hubble; Earth observation satellites from companies like Planet Labs, Umbra, and HawkEye 360; GPS; miniature CubeSats for education and research; and military/defense satellites.

Loading next visibility...
Identifier
46058, 2020-055AH
Orbit
LEO
Last TLE update
19 hours ago
Origin
Manufacturer
SpaceX/Seattle
Mission
Operational Commercial Communications
Bus & Motor
STARLINK, Unknown motor
Mass
260 kg wet, ~248 kg dry
Launch date (UTC)
2020-08-07 (5 years ago)
Launch vehicle
FALCON 9
Launch site
Air Force Eastern Test Range (AFETR)
Object type
Payload
Rocket body
Debris
Shape & HBR
Box + 1 Pan, 8.86 m
Radar Cross Section
13.562 m², Large (>1 m²)

Expand to show TLE details & history

TLE from 19 hours ago
0 STARLINK-1564
1 46058U 20055AH  25128.49725795  .00001433  00000-0  11509-3 0  9991
2 46058  53.0549  47.1425 0001476  82.1189 277.9968 15.06401447263024
Epoch: 2025-05-08T11:56Z
Definitive object data (Epoch: 2025-05-08T11:56:03.086Z)
Latitude
Longitude
1.56274°
Altitude
547.944 km
Speed
7.589 km/s
True Right ascension
03h 08m 34s
True Declination
0° 00' 00"
Sunlit
Object was in daylight at TLE epoch
Visualization TLE readout
Latitude
-52.35948°
Longitude
-77.82892°
Altitude
566.368 km
Speed
7.577 km/s
Apparent Right ascension
00h 32m 47s
Apparent Declination
-52° 39' 35"
Sunlit
Object is in daylight
Visualization observer readout
Local Sidereal Time
14:49:45
Azimuth
130.163° SE
Elevation
-63.472°
Doppler factor
1
Orbital elements
Apogee altitude
548.5 km
Perigee altitude
546.456 km
Semi-major axis
6,925.615 km
Eccentricity
0.0001476
Inclination
53.0549°
RAAN
47.1425°
Arg. of periapsis
82.1189°
True anomaly
277.98005°
Mean anomaly
277.9968°
Eccentric anomaly
277.98843°
Mean motion
3.76579 °/min
BSTAR
0.00011509
Orbital period
95.6 mins
Loading maneuver chart data...
Loading SW <> Apogee altitude chart data...
Loading historical data...
Loading historical data...
Loading historical data...
Loading historical data...
Loading historical data...
Loading historical data...
Loading historical data...

STARLINK-1564 Visibility forecast

Observer location: undefined°, undefined°

Span
Click to sort rows by Start time (UTC) header in descending order
Start Az.
Max El. time (UTC)
Max El. Az.
Max El.
End time (UTC)
End Az.
5 mins2025-05-09 19:55:53.508Z173.654° S2025-05-09 19:58:53.508Z119.202° SE20.127°2025-05-09 20:00:53.508Z85.292° E
6 mins2025-05-09 21:34:53.508Z252.621° W2025-05-09 21:37:53.508Z335.618° NNW38.186°2025-05-09 21:40:53.508Z39.081° NE
5 mins2025-05-10 02:37:53.508Z349.064° N2025-05-10 02:39:53.508Z38.281° NE25.181°2025-05-10 02:42:53.508Z87.15° E
6 mins2025-05-10 04:16:53.508Z291.391° WNW2025-05-10 04:18:53.508Z241.212° WSW37.253°2025-05-10 04:22:53.508Z150.275° SSE
|